カタログに戻る

STARLINK-11409

運用中通信VLEO
NORAD 63061·PAYLOAD·🇺🇸 United States

打ち上げ Feb 21, 2025 から Cape Canaveral Space Force Station

Loading…

次のパス (今後24時間)

TLE

最新Source: CelesTrak SupGP

元期: Sep 15, 2026, 03:53 UTC

1 63061C 25035K   26258.16229167  .00065040  00000+0  50538-3 0  2584
2 63061  42.9999 313.4283 0001468 264.6724 256.4326 15.70796478    17

AllMySatでSTARLINK-11409をリアルタイム追跡

Download on the App Store